TimeEST,TemperatureF,Dew PointF,Humidity,Sea Level PressureIn,VisibilityMPH,Wind Direction,Wind SpeedMPH,Gust SpeedMPH,PrecipitationIn,Events,Conditions,WindDirDegrees,DateUTC
12:54 AM,17.1,10.0,74,30.19,10.0,Calm,Calm,-,N/A,,Overcast,0,2014-01-05 05:54:00
1:54 AM,18.0,10.9,74,30.20,10.0,Calm,Calm,-,N/A,,Overcast,0,2014-01-05 06:54:00
2:54 AM,16.0,9.0,74,30.21,10.0,Calm,Calm,-,N/A,,Mostly Cloudy,0,2014-01-05 07:54:00
3:54 AM,18.0,9.0,68,30.21,10.0,North,3.5,-,N/A,,Overcast,350,2014-01-05 08:54:00
4:54 AM,18.0,10.0,71,30.21,10.0,Calm,Calm,-,N/A,,Scattered Clouds,0,2014-01-05 09:54:00
5:54 AM,17.1,10.9,77,30.22,10.0,Calm,Calm,-,N/A,,Clear,0,2014-01-05 10:54:00
6:54 AM,15.1,10.0,80,30.23,10.0,SSE,3.5,-,N/A,,Clear,160,2014-01-05 11:54:00
7:54 AM,15.1,10.0,80,30.26,10.0,Calm,Calm,-,N/A,,Partly Cloudy,0,2014-01-05 12:54:00
8:54 AM,19.0,10.9,71,30.27,10.0,Calm,Calm,-,N/A,,Overcast,0,2014-01-05 13:54:00
9:54 AM,21.0,10.9,65,30.27,10.0,Calm,Calm,-,N/A,,Overcast,0,2014-01-05 14:54:00
10:54 AM,24.1,10.9,57,30.25,10.0,SSE,4.6,-,N/A,,Mostly Cloudy,160,2014-01-05 15:54:00
11:54 AM,25.0,10.9,55,30.24,10.0,SSE,4.6,-,N/A,,Partly Cloudy,160,2014-01-05 16:54:00
12:54 PM,28.0,12.0,51,30.20,10.0,Calm,Calm,-,N/A,,Clear,0,2014-01-05 17:54:00
1:54 PM,30.0,12.9,49,30.18,10.0,Calm,Calm,-,N/A,,Partly Cloudy,0,2014-01-05 18:54:00
2:54 PM,30.9,14.0,50,30.18,10.0,Calm,Calm,-,N/A,,Clear,0,2014-01-05 19:54:00
3:54 PM,28.9,17.1,61,30.19,10.0,Calm,Calm,-,N/A,,Mostly Cloudy,0,2014-01-05 20:54:00
4:54 PM,27.0,19.9,75,30.18,10.0,Calm,Calm,-,N/A,,Overcast,0,2014-01-05 21:54:00
5:54 PM,28.0,21.0,75,30.16,10.0,Calm,Calm,-,N/A,,Overcast,0,2014-01-05 22:54:00
6:54 PM,28.9,19.9,69,30.14,10.0,Calm,Calm,-,N/A,,Overcast,0,2014-01-05 23:54:00
7:54 PM,28.0,21.0,75,30.11,10.0,Calm,Calm,-,0.00,,Overcast,0,2014-01-06 00:54:00
8:40 PM,28.4,23.0,80,30.04,9.0,Calm,Calm,-,0.00,Rain,Light Freezing Rain,0,2014-01-06 01:40:00
8:54 PM,28.9,24.1,82,30.06,5.0,South,3.5,-,0.01,Rain,Light Freezing Rain,190,2014-01-06 01:54:00
9:54 PM,30.0,27.0,88,30.00,9.0,Calm,Calm,-,0.04,Rain,Light Freezing Rain,0,2014-01-06 02:54:00
10:12 PM,30.2,26.6,86,29.95,10.0,Calm,Calm,-,0.00,,Overcast,0,2014-01-06 03:12:00
10:34 PM,30.2,28.4,93,29.92,9.0,Variable,5.8,-,0.00,,Overcast,0,2014-01-06 03:34:00
10:40 PM,30.2,28.4,93,29.92,5.0,Variable,4.6,-,0.02,Rain,Light Freezing Rain,0,2014-01-06 03:40:00
10:46 PM,30.2,28.4,93,29.90,5.0,Calm,Calm,-,0.02,Rain,Light Freezing Rain,0,2014-01-06 03:46:00
10:54 PM,30.9,28.0,89,29.94,10.0,South,3.5,-,0.02,Rain,Light Freezing Rain,190,2014-01-06 03:54:00
11:54 PM,33.1,30.0,89,29.86,10.0,Calm,Calm,-,0.03,Rain,Light Freezing Rain,0,2014-01-06 04:54:00